Location: CNYAC Observatory
(43.2150°N, 74.9500°W)
Time: 12:11:46
(UTC-04:00)

Cosmos 1975 Rocket - Visible Passes

Search period start: 24 August 2016 00:00
Search period end: 03 September 2016 00:00
Orbit: 604 x 635 km, 82.5° (Epoch: 23 August)

Date Brightness Start Highest point End Pass type
(mag) Time Alt. Az. Time Alt. Az. Time Alt. Az.
28 Aug 6.1 05:46:35 10° SE 05:49:29 18° E 05:52:25 10° NE visible
31 Aug 6.7 05:03:43 10° E 05:04:10 10° E 05:04:38 10° ENE visible
01 Sep 6.0 05:18:14 10° SE 05:21:17 19° E 05:24:21 10° NE visible
02 Sep 4.9 05:34:34 10° SSE 05:38:29 34° E 05:42:26 10° NNE visible
